Temperature
7 7 7 7 7 7 7 8 8 8 8 8 8 8 8 8 8 8 8 8 9 9 9 9 9 9 9 9 9 10 10 10 10 10 10 10 11 11 11 11 11 11 11
7 7 7 7 7 7 7 7 7 7 7 7 7 7 7 7 7 8 8 8 8 8 8 8 8 8 8 8 9 9 9 9 9 9 10 10 10 10 10 10 11 11 11
6 6 6 6 6 6 6 6 6 6 6 6 6 7 7 7 7 7 7 7 7 7 7 7 7 7 8 8 8 8 8 8 8 9 9 9 9 9 9 10 10 10 10
5 5 5 5 5 5 5 5 5 5 5 6 6 6 6 6 6 6 6 6 6 6 7 7 7 7 7 7 7 7 7 7 8 8 8 8 8 8 9 9 9 9 9
4 4 4 4 4 4 4 4 4 4 5 5 5 5 5 5 5 5 5 5 5 6 6 6 6 6 6 6 6 6 6 6 7 7 7 7 8 8 8 8 8 9 9
4 4 4 4 4 3 4 4 4 4 4 4 4 4 4 4 4 4 4 4 5 5 5 5 5 5 6 5 5 5 5 5 6 6 6 6 7 7 7 7 8 8 8
3 3 3 3 3 3 3 3 3 3 3 3 3 3 3 3 3 3 3 3 3 4 4 4 4 4 5 5 5 5 5 5 5 5 5 5 6 6 6 7 7 7 7
3 2 2 2 2 2 2 2 2 2 2 2 2 1 2 2 2 2 2 2 2 3 3 3 3 4 4 4 4 4 4 4 4 4 4 4 5 5 5 6 6 6 7
2 2 2 2 2 1 1 1 1 1 1 1 1 0 1 1 0 1 1 2 2 2 2 2 3 3 3 3 3 3 3 4 4 3 3 4 4 4 5 5 5 6 6
1 1 1 1 1 1 1 1 1 1 0 0 0 -0 -0 -0 -1 -0 0 1 1 1 1 1 2 2 2 2 2 2 2 3 3 3 3 3 3 3 4 4 5 5 5
1 1 1 1 1 0 0 0 0 -0 -0 -0 -1 -1 -1 -1 -1 -1 -1 -1 -0 0 0 0 1 1 1 1 1 1 1 2 2 2 2 2 2 3 3 4 4 4 5
0 -0 -0 -0 -0 -0 -0 -0 -0 -1 -1 -1 -1 -1 -2 -2 -2 -2 -2 -2 -1 -1 -1 -0 -0 -0 -0 -0 0 0 1 1 1 1 1 1 2 2 2 3 3 4 4
-0 -0 -1 -1 -1 -1 -1 -1 -1 -1 -1 -2 -2 -2 -2 -2 -2 -2 -3 -3 -2 -2 -1 -1 -1 -1 -1 -1 -1 -1 -0 -0 0 0 0 1 1 1 2 2 2 3 3
-1 -1 -1 -1 -1 -1 -1 -2 -2 -2 -2 -2 -2 -2 -3 -3 -3 -3 -3 -3 -3 -3 -2 -2 -2 -2 -2 -2 -2 -1 -1 -1 -1 -0 -0 0 0 1 1 1 2 2 2
-1 -1 -2 -2 -2 -2 -2 -2 -2 -2 -2 -2 -3 -3 -3 -3 -3 -3 -3 -4 -4 -4 -3 -3 -3 -2 -2 -2 -2 -2 -2 -2 -2 -1 -1 -0 -0 -0 0 0 1 1 1
-2 -2 -2 -2 -2 -3 -3 -3 -3 -3 -3 -3 -3 -3 -3 -4 -4 -4 -4 -4 -4 -4 -4 -4 -3 -3 -3 -3 -3 -3 -2 -2 -2 -2 -1 -1 -1 -1 -1 -0 0 0 1
-2 -3 -3 -3 -3 -3 -3 -3 -3 -3 -4 -4 -4 -4 -4 -4 -4 -4 -4 -4 -4 -5 -5 -4 -4 -4 -4 -4 -3 -3 -3 -3 -3 -2 -2 -2 -2 -1 -1 -1 -1 -0 -0
-3 -3 -3 -3 -3 -3 -3 -4 -4 -4 -4 -4 -4 -4 -4 -5 -5 -5 -5 -5 -5 -5 -5 -5 -5 -5 -4 -4 -4 -4 -4 -3 -3 -3 -3 -3 -2 -2 -2 -2 -1 -1 -1
-4 -4 -4 -4 -4 -4 -4 -4 -4 -4 -4 -5 -5 -5 -5 -5 -5 -5 -5 -5 -5 -5 -5 -6 -5 -5 -5 -5 -5 -5 -4 -4 -4 -4 -4 -3 -3 -3 -2 -2 -2 -2 -2
-4 -4 -4 -4 -4 -4 -4 -5 -5 -5 -5 -5 -6 -6 -6 -6 -6 -6 -6 -6 -6 -6 -6 -6 -6 -6 -5 -5 -5 -5 -5 -5 -4 -4 -4 -4 -4 -3 -3 -3 -3 -3 -2
-5 -5 -5 -5 -5 -5 -5 -5 -6 -6 -6 -6 -6 -6 -6 -6 -6 -6 -6 -6 -6 -6 -6 -6 -6 -6 -6 -6 -6 -6 -5 -5 -5 -5 -5 -4 -4 -4 -4 -4 -3 -3 -3
-5 -6 -6 -6 -6 -6 -6 -6 -6 -6 -6 -6 -6 -7 -7 -7 -7 -7 -7 -7 -7 -7 -7 -7 -7 -6 -6 -6 -6 -6 -6 -6 -6 -5 -5 -5 -5 -5 -4 -4 -4 -4 -4
-6 -6 -6 -6 -6 -6 -6 -7 -7 -7 -7 -7 -7 -7 -7 -7 -7 -7 -7 -7 -7 -7 -7 -7 -7 -7 -7 -7 -7 -7 -7 -7 -6 -6 -6 -6 -5 -5 -5 -5 -4 -4 -4
-7 -7 -7 -7 -7 -7 -7 -7 -7 -8 -8 -7 -7 -7 -7 -7 -7 -7 -7 -7 -7 -7 -7 -7 -7 -7 -7 -7 -7 -7 -7 -7 -7 -7 -7 -7 -6 -6 -6 -5 -5 -5 -5
-7 -7 -8 -8 -7 -7 -7 -7 -8 -8 -8 -8 -8 -8 -8 -8 -8 -8 -8 -8 -8 -8 -8 -8 -7 -8 -7 -7 -8 -8 -8 -8 -8 -8 -8 -8 -7 -7 -6 -6 -6 -6 -6
-8 -8 -8 -8 -8 -8 -8 -8 -8 -8 -8 -8 -8 -8 -8 -8 -8 -8 -8 -8 -8 -8 -8 -8 -8 -8 -8 -8 -8 -8 -8 -8 -8 -8 -8 -8 -8 -8 -7 -7 -6 -6 -6
Wind_Speed
4 5 5 5 5 5 5 5 5 6 5 5 6 6 5 5 5 5 5 9 10 9 9 9 8 8 8 7 7 7 6 6 7 6 6 4 4 3 3 3 2 1 1
5 4 4 5 5 5 5 5 5 5 5 5 5 5 5 5 4 4 4 6 8 9 9 9 9 8 8 8 7 6 6 6 6 7 7 6 5 3 2 3 3 3 2
5 4 4 4 4 4 4 4 5 4 4 4 4 5 4 4 4 4 4 4 5 8 9 9 9 8 8 8 7 6 6 6 6 6 6 6 6 5 4 3 3 3 3
5 4 4 4 4 4 4 4 3 3 3 3 3 3 3 3 4 4 4 5 5 5 7 9 9 8 8 7 7 6 6 6 6 5 5 6 6 6 5 5 4 4 4
4 4 4 3 3 3 4 3 3 3 3 4 3 3 3 2 3 3 3 4 5 5 6 7 7 7 7 7 7 6 6 6 6 6 6 6 7 7 6 6 5 5 5
4 4 3 3 3 3 3 3 3 3 2 3 2 3 2 2 2 3 3 4 5 6 6 7 6 6 7 7 6 6 6 6 6 7 7 7 7 8 8 7 7 7 6
3 3 3 2 2 2 2 3 2 2 2 3 2 2 1 1 1 2 2 3 4 5 6 6 6 6 5 5 6 7 7 7 8 7 8 8 9 9 9 9 9 8 8
3 2 2 2 2 1 2 2 2 1 2 2 2 2 1 1 0 1 2 2 3 4 5 6 6 5 6 5 5 7 8 8 8 9 9 9 9 10 10 10 10 10 9
2 2 1 1 1 1 1 1 1 1 1 2 2 2 2 2 3 2 2 2 3 4 4 6 6 6 6 5 5 6 8 9 9 10 10 10 10 10 11 11 11 11 11
2 1 1 1 0 0 0 1 1 1 1 2 1 2 3 2 2 2 2 2 4 4 4 5 5 6 6 5 5 7 8 9 10 11 11 11 11 12 12 12 12 12 12
2 2 1 1 1 1 1 1 2 2 2 2 2 2 3 3 3 4 5 5 4 4 4 5 5 5 6 6 6 7 9 10 11 12 12 12 12 13 13 13 13 13 13
2 2 2 2 2 2 2 2 2 3 3 3 3 3 3 3 3 4 5 6 6 5 5 4 5 5 5 6 7 9 10 10 11 12 13 13 13 13 14 14 14 14 14
2 2 2 2 2 2 3 3 3 3 4 4 4 4 4 4 4 5 5 6 7 6 5 4 4 5 5 6 7 9 10 11 12 13 13 13 12 12 13 13 14 15 15
3 3 3 3 3 3 3 4 4 4 4 5 5 5 4 4 4 5 5 6 6 6 6 6 5 5 6 7 8 10 9 10 12 12 13 13 12 12 13 13 13 14 14
3 4 4 4 4 4 4 4 4 5 4 5 5 5 5 4 4 5 5 6 6 6 7 6 5 5 6 8 9 10 10 11 12 13 12 13 13 12 12 12 12 13 13
4 4 4 4 4 5 5 5 4 5 5 5 5 5 5 4 4 5 5 6 7 7 7 6 7 8 8 9 10 11 11 12 13 12 12 12 11 11 11 12 12 12 13
5 5 5 5 5 5 5 5 5 6 6 6 5 6 6 6 5 5 6 6 6 6 8 8 8 8 9 9 9 10 10 10 10 10 10 11 11 11 11 12 12 12 12
5 5 5 5 5 5 5 6 6 6 6 6 7 7 7 6 7 6 6 6 6 6 7 9 8 8 9 9 9 9 9 9 10 11 11 11 11 11 11 12 12 12 12
5 5 5 5 5 5 6 6 7 7 7 7 7 8 8 7 7 6 6 6 6 6 6 7 8 8 8 8 9 9 9 9 10 10 11 11 11 11 11 12 12 13 13
5 5 5 6 6 6 6 6 7 7 7 7 8 8 8 8 8 8 7 7 6 6 7 7 7 8 7 8 7 7 7 7 8 8 9 10 11 11 12 12 12 13 13
5 5 5 6 6 6 6 7 7 7 8 8 8 8 8 9 10 9 7 7 6 6 6 7 7 7 7 7 7 6 8 8 8 7 7 8 9 8 9 10 11 12 12
5 5 6 6 6 6 8 10 9 7 7 8 8 8 8 8 9 10 11 10 10 9 8 8 8 8 9 8 7 7 7 8 8 6 7 9 8 8 8 9 10 12 12
5 5 6 6 7 8 10 10 10 7 7 7 8 7 7 7 9 8 9 10 11 12 12 10 10 10 10 9 9 9 9 10 10 8 8 9 8 9 9 10 12 12 13
5 5 6 6 7 7 9 10 10 8 7 8 8 8 8 9 8 9 9 9 9 9 10 9 9 10 10 9 9 10 10 10 10 9 8 9 8 8 8 9 11 11 12
5 5 6 6 7 7 9 10 9 6 7 8 8 8 9 9 11 12 9 9 9 8 9 11 12 12 13 13 11 8 8 8 9 8 6 7 8 8 8 8 8 9 11
5 5 5 6 6 7 9 10 9 5 6 7 7 8 10 10 11 11 9 8 9 8 8 8 10 10 10 10 11 9 8 8 7 7 5 6 7 6 6 6 6 7 9
Wind_Direction
70 65 58 50 43 35 33 29 27 24 23 26 31 30 29 31 35 36 41 40 35 34 33 34 40 42 40 41 42 39 35 37 34 28 22 17 12 19 23 18 14 5 351
69 66 62 51 42 34 30 26 23 20 19 21 23 22 20 24 29 33 35 41 41 36 30 28 32 35 32 30 34 32 29 26 24 21 15 6 355 357 1 1 351 334 311
73 69 65 54 41 32 32 30 25 22 20 18 16 16 17 21 26 33 34 33 38 40 34 27 25 29 29 24 24 23 21 17 12 7 5 1 358 347 340 340 334 327 310
74 73 66 54 40 36 33 30 23 16 12 3 2 5 10 17 24 31 39 35 31 29 32 27 19 20 23 21 15 13 9 3 358 354 347 342 342 340 336 331 320 312 303
73 76 68 56 46 42 36 26 22 15 9 2 355 353 357 7 20 28 36 33 25 21 19 18 16 16 17 15 6 358 355 350 344 341 335 330 326 321 316 317 311 312 311
71 77 74 61 52 46 37 27 19 19 13 4 358 354 349 5 27 33 27 27 23 16 11 7 6 9 15 13 359 346 341 338 331 329 326 320 315 307 302 297 302 293 293
81 79 74 71 55 51 42 29 21 16 21 16 359 352 350 10 38 21 18 11 11 5 359 0 358 355 353 358 357 349 342 332 324 315 315 312 305 303 294 288 285 288 282
85 76 76 67 52 46 46 33 24 11 3 9 341 315 303 254 273 326 339 341 351 350 349 350 350 350 343 337 348 351 342 330 321 315 307 304 303 298 297 292 280 277 280
99 86 85 90 71 54 42 18 7 342 325 341 350 315 288 274 312 267 296 312 331 333 335 340 342 341 336 336 337 343 335 328 318 311 307 301 298 296 291 291 290 280 276
138 132 149 142 115 55 305 291 311 304 289 295 309 318 305 297 280 287 268 284 307 312 315 323 329 331 331 330 334 333 329 326 320 310 303 299 295 292 290 288 288 286 284
171 165 192 197 208 254 275 272 273 278 272 273 284 293 284 274 268 269 284 292 291 292 301 307 309 316 321 321 322 326 325 322 316 312 306 297 296 292 287 285 285 283 282
189 187 208 220 232 245 255 262 260 260 260 263 264 265 270 267 273 273 279 289 291 291 292 293 298 303 308 310 313 318 315 313 311 309 306 301 296 296 293 286 283 280 278
209 208 220 234 250 258 257 255 253 254 253 255 255 260 261 262 273 272 272 284 288 294 290 282 288 295 301 303 307 312 308 309 311 308 305 304 305 300 299 295 287 281 278
218 219 226 238 245 250 256 248 248 251 254 254 256 258 259 262 265 266 267 280 288 286 285 287 289 288 301 304 305 306 304 307 308 306 304 302 303 304 299 297 293 288 281
221 224 232 240 243 245 249 255 249 249 253 255 257 258 258 261 263 265 263 261 267 280 286 288 294 292 303 304 302 298 297 301 302 299 297 296 296 297 299 296 295 294 292
220 226 236 242 242 243 246 252 255 251 251 254 258 259 262 263 263 263 258 259 258 261 273 284 290 294 298 299 300 297 295 300 297 290 291 292 293 294 295 294 293 294 294
226 229 234 241 243 242 244 247 252 255 250 252 254 255 259 262 265 263 259 256 256 256 264 279 285 288 290 293 297 297 297 296 295 292 289 290 292 292 291 291 291 292 292
235 237 239 241 245 245 245 246 250 251 250 251 253 254 256 258 260 261 259 259 260 259 260 273 282 286 289 291 293 293 295 294 294 294 291 287 287 290 289 286 286 287 288
241 243 243 244 247 249 250 250 250 250 250 252 252 252 254 255 258 261 261 262 263 265 264 267 278 283 286 288 292 292 292 291 292 292 290 287 288 288 288 284 283 284 284
243 247 248 250 251 252 253 254 252 250 252 256 257 255 253 254 256 260 263 263 265 268 268 267 272 278 282 289 288 292 295 295 295 297 292 290 292 292 287 283 281 281 281
248 251 252 254 254 254 251 253 253 255 259 261 260 261 259 259 262 263 263 264 266 267 269 269 272 276 279 286 286 290 290 295 293 292 294 294 294 291 288 283 280 280 280
251 252 252 253 255 254 256 259 261 261 261 260 263 263 265 264 265 267 271 272 269 265 266 269 271 273 278 281 284 282 284 288 288 290 294 293 291 286 288 284 284 284 281
256 255 257 256 258 260 261 264 265 263 260 259 260 261 263 264 269 267 271 272 270 269 266 268 270 274 278 278 280 280 280 282 281 288 289 286 285 283 287 285 285 280 278
255 258 259 260 264 266 267 267 268 262 263 260 259 259 262 265 263 269 270 270 268 268 268 268 270 273 275 277 276 278 279 279 279 276 272 278 282 283 288 288 285 278 278
259 258 260 261 266 271 268 267 271 262 261 262 260 259 259 263 265 268 270 270 272 273 274 273 274 276 275 276 277 276 274 272 275 277 271 267 278 286 286 283 284 282 281
260 263 265 265 265 269 269 269 270 260 261 263 262 260 260 261 266 268 265 269 271 277 280 280 277 277 276 274 273 267 268 269 274 275 266 268 277 286 283 282 289 294 291
Height
1530 1530 1530 1530 1530 1529 1529 1529 1529 1528 1528 1528 1528 1528 1528 1528 1529 1529 1529 1529 1529 1529 1529 1529 1530 1530 1530 1530 1530 1530 1531 1531 1532 1532 1533 1533 1533 1534 1535 1535 1536 1537 1538
1528 1529 1528 1528 1528 1528 1528 1527 1527 1527 1526 1526 1526 1526 1527 1527 1527 1527 1527 1527 1527 1527 1527 1527 1528 1527 1528 1528 1528 1528 1529 1529 1529 1530 1530 1531 1531 1532 1532 1533 1534 1535 1535
1527 1527 1527 1527 1526 1526 1526 1526 1526 1525 1525 1525 1524 1524 1524 1524 1524 1524 1524 1525 1525 1525 1525 1525 1525 1525 1525 1525 1526 1526 1526 1527 1527 1527 1528 1528 1529 1529 1530 1530 1531 1532 1532
1525 1525 1525 1525 1525 1525 1524 1524 1524 1523 1523 1523 1522 1522 1522 1522 1522 1522 1522 1522 1522 1522 1522 1522 1522 1522 1522 1523 1523 1523 1524 1524 1524 1525 1525 1525 1526 1526 1526 1527 1528 1528 1529
1523 1523 1523 1523 1523 1523 1523 1522 1522 1522 1521 1521 1520 1520 1519 1519 1519 1519 1519 1519 1519 1519 1519 1519 1519 1519 1519 1519 1520 1520 1521 1521 1521 1521 1522 1522 1522 1523 1523 1524 1525 1525 1526
1521 1521 1521 1521 1521 1521 1521 1520 1520 1519 1519 1518 1518 1517 1517 1517 1516 1516 1516 1516 1516 1516 1516 1516 1516 1516 1516 1516 1516 1517 1517 1517 1518 1518 1518 1519 1519 1520 1520 1521 1521 1522 1522
1519 1519 1519 1519 1519 1519 1519 1518 1518 1517 1517 1516 1516 1515 1515 1514 1514 1514 1514 1513 1513 1513 1513 1513 1513 1513 1512 1512 1512 1513 1513 1513 1514 1514 1514 1515 1515 1516 1516 1517 1518 1518 1519
1517 1517 1517 1517 1517 1517 1517 1516 1516 1515 1514 1514 1514 1513 1513 1514 1512 1511 1511 1510 1510 1510 1510 1510 1509 1509 1509 1508 1508 1509 1509 1509 1510 1510 1510 1511 1511 1512 1512 1513 1514 1514 1514
1514 1514 1515 1515 1515 1515 1514 1514 1514 1513 1513 1513 1512 1513 1513 1512 1510 1509 1508 1508 1507 1507 1507 1506 1506 1505 1505 1504 1504 1504 1504 1505 1505 1506 1506 1507 1507 1507 1508 1508 1509 1509 1510
1511 1512 1512 1512 1512 1512 1512 1511 1511 1511 1511 1510 1510 1510 1511 1510 1510 1507 1506 1506 1505 1504 1504 1503 1502 1502 1501 1500 1500 1500 1500 1500 1500 1501 1502 1502 1502 1503 1503 1503 1504 1504 1504
1509 1509 1509 1509 1509 1509 1509 1509 1508 1508 1508 1508 1507 1507 1507 1507 1506 1506 1504 1503 1502 1501 1501 1500 1499 1498 1497 1497 1496 1496 1496 1496 1496 1496 1497 1497 1497 1497 1498 1498 1498 1498 1499
1505 1506 1506 1506 1506 1506 1506 1505 1505 1505 1505 1504 1504 1504 1504 1504 1503 1503 1501 1500 1498 1498 1497 1496 1495 1494 1494 1493 1493 1492 1492 1491 1491 1491 1491 1491 1492 1492 1492 1492 1492 1492 1493
1501 1502 1502 1503 1502 1502 1502 1502 1502 1502 1501 1501 1501 1500 1500 1500 1499 1499 1498 1497 1495 1493 1492 1492 1492 1491 1490 1489 1489 1488 1488 1487 1486 1486 1485 1485 1485 1486 1486 1486 1486 1486 1486
1498 1498 1498 1499 1499 1499 1498 1498 1498 1497 1497 1497 1497 1496 1496 1495 1495 1495 1495 1494 1491 1489 1488 1488 1488 1487 1486 1485 1485 1484 1483 1482 1481 1480 1480 1479 1479 1479 1480 1480 1480 1480 1480
1494 1494 1494 1494 1494 1494 1494 1494 1494 1493 1493 1493 1492 1492 1491 1491 1491 1490 1490 1490 1490 1486 1484 1484 1484 1483 1482 1481 1480 1480 1478 1477 1475 1474 1474 1474 1473 1473 1473 1473 1474 1473 1474
1490 1490 1490 1490 1490 1490 1490 1490 1489 1489 1489 1488 1488 1488 1487 1486 1486 1486 1486 1485 1485 1483 1481 1479 1479 1479 1478 1477 1476 1475 1473 1471 1469 1468 1468 1468 1468 1468 1467 1468 1468 1468 1468
1485 1485 1485 1485 1485 1485 1485 1485 1485 1484 1484 1484 1483 1483 1483 1482 1482 1481 1481 1480 1479 1479 1476 1475 1475 1474 1473 1472 1471 1470 1468 1467 1464 1464 1463 1462 1462 1462 1462 1462 1462 1462 1461
1480 1481 1481 1481 1481 1480 1480 1480 1480 1480 1479 1479 1479 1478 1478 1478 1477 1477 1476 1475 1474 1474 1472 1470 1470 1469 1468 1468 1466 1465 1463 1462 1460 1459 1458 1457 1456 1456 1456 1455 1455 1455 1455
1476 1476 1476 1476 1475 1475 1475 1475 1475 1475 1474 1474 1474 1473 1473 1473 1472 1472 1471 1470 1469 1469 1468 1467 1465 1465 1464 1463 1462 1460 1459 1457 1456 1454 1453 1452 1451 1450 1449 1449 1449 1448 1448
1471 1471 1471 1471 1471 1470 1470 1470 1470 1470 1469 1469 1469 1468 1468 1467 1467 1467 1466 1465 1465 1464 1464 1463 1461 1460 1459 1458 1457 1455 1453 1452 1451 1450 1448 1447 1446 1444 1443 1443 1442 1442 1441
1466 1466 1466 1466 1466 1465 1465 1465 1465 1465 1464 1464 1464 1463 1463 1463 1462 1462 1462 1461 1461 1460 1459 1458 1457 1456 1455 1454 1453 1451 1449 1447 1446 1445 1443 1442 1440 1438 1437 1437 1436 1435 1435
1462 1462 1461 1461 1461 1460 1460 1460 1460 1460 1459 1459 1459 1458 1458 1458 1457 1457 1457 1456 1456 1455 1454 1454 1453 1452 1450 1450 1448 1447 1445 1443 1440 1441 1439 1436 1435 1433 1432 1431 1430 1429 1429
1457 1457 1456 1456 1456 1456 1456 1456 1456 1455 1455 1454 1454 1454 1453 1453 1453 1452 1452 1451 1451 1450 1450 1450 1448 1446 1446 1445 1444 1442 1440 1438 1436 1434 1434 1430 1430 1427 1427 1425 1424 1423 1423
1453 1452 1452 1451 1451 1451 1451 1451 1451 1451 1450 1450 1449 1449 1449 1448 1448 1448 1447 1446 1445 1444 1444 1443 1442 1441 1440 1439 1439 1437 1435 1432 1430 1429 1428 1425 1423 1422 1420 1419 1418 1418 1417
1448 1447 1447 1446 1446 1446 1446 1446 1446 1446 1445 1445 1445 1444 1444 1443 1443 1443 1442 1441 1440 1439 1438 1437 1436 1435 1434 1433 1433 1431 1429 1427 1423 1422 1422 1420 1418 1416 1414 1413 1412 1412 1411
1444 1443 1443 1442 1442 1441 1442 1442 1442 1441 1441 1440 1440 1440 1439 1439 1438 1438 1437 1436 1435 1434 1433 1431 1430 1429 1428 1427 1426 1425 1423 1421 1418 1416 1416 1415 1413 1412 1408 1407 1407 1406 1405